DELTA 1 DEB, 42585

Orbit data source: Space-Track

DELTA 1 DEB, 42585 is space debris in SSO originally from a launch on Tue, 06 Nov 1973 UTC launched from the Air Force Western Test Range (AFWTR). Debris objects in space refer to the collection of defunct objects orbiting the Earth. Examples of debris include non-operational satellites, rocket bodies, and fragments generated from explosions, collisions, or faulty payload assembly.

Loading next visibility...
Identifier
42585, 1973-086HZ
Orbit
SSO
Country
Flag of USUS
Related business
Manufacturer
Unknown
Mission
Spacecraft
Bus & Motor
Unknown
Mass
Unknown
Launch date (UTC)
1973-11-06 (53 years ago)
Launch vehicle
Unknown
Launch site
Air Force Western Test Range (AFWTR)
Object type
Payload
Rocket body
Debris
Shape & HBR
Unknown shape, 0.1 m
Radar Cross Section
Small (<0.1 m²)

Expand to show TLE details & history
Last TLE update: 1 week ago

TLE from 1 week ago
0 DELTA 1 DEB
1 42585U 73086HZ  26166.58907851  .00000013  00000-0  22247-3 0  9996
2 42585 101.9587 101.3545 0243541 161.6151  20.1304 12.87033944993996
Epoch: 2026-06-15T14:08Z
TLE epoch observation values (Epoch: 2026-06-15T14:08:16.383Z)
Latitude
-2.7992°
Longitude
164.82262°
Altitude
1,140.996 km
Speed
7.365 km/s
True Right ascension
18h 43m 03s
True Declination
-2° 46' 60"
Sunlit
Object was in full shadow at epoch
Visualization orbit readout
Latitude
Unknown
Longitude
Unknown
Altitude
Unknown
Speed
Unknown
Apparent Right ascension
Unknown
Apparent Declination
Unknown
Sunlit
N/A
Visualization observer readout
Local Sidereal Time
21:37:07
Azimuth
Unknown
Elevation
Unknown
Doppler factor
Unknown
Orbital elements
Apogee altitude
1,498.085 km
Perigee altitude
1,123.569 km
Semi-major axis
7,688.964 km
Eccentricity
0.02435
Inclination
101.9587°
RAAN
101.3545°
Arg. of periapsis
161.6151°
True anomaly
21.11904°
Mean anomaly
20.1304°
Eccentric anomaly
20.62185°
Mean motion
3.21915 °/min
Orbital period
111.83 mins
BSTAR
0.00022247
Loading maneuver chart data...
Computing Atmospheric mass density...
Loading historical data...
Loading historical data...
Loading historical data...
Loading historical data...
Loading historical data...
Loading historical data...
Loading historical data...

Documentation

Showing up to 5 results
|